QPF
0.00 0.00 0.00 0.00 0.00 0.00 0.00 0.00 0.00 0.00 0.00 0.00 0.00 0.00 0.00 0.00 0.00 0.00 0.00 0.00 0.00 0.00 0.00 0.00 0.00 0.00 0.00 0.00 0.00 0.00 0.00 0.00 0.00 0.00 0.00 0.00 0.00 0.00 0.00 0.00 0.00 0.00 0.00 0.00 0.00 0.00 0.00 0.00 0.00
0.00 0.00 0.00 0.00 0.00 0.00 0.00 0.00 0.00 0.00 0.00 0.00 0.00 0.00 0.00 0.00 0.00 0.00 0.00 0.00 0.00 0.00 0.00 0.00 0.00 0.00 0.00 0.00 0.00 0.00 0.00 0.00 0.00 0.00 0.00 0.00 0.00 0.00 0.00 0.00 0.00 0.00 0.00 0.00 0.00 0.00 0.00 0.00 0.00
0.00 0.00 0.00 0.00 0.00 0.00 0.00 0.00 0.00 0.00 0.00 0.00 0.00 0.00 0.00 0.00 0.00 0.00 0.00 0.00 0.00 0.00 0.00 0.00 0.00 0.00 0.00 0.00 0.00 0.00 0.00 0.00 0.00 0.00 0.00 0.00 0.00 0.00 0.00 0.00 0.00 0.00 0.00 0.00 0.00 0.00 0.00 0.00 0.00
0.00 0.00 0.00 0.00 0.00 0.00 0.00 0.00 0.00 0.00 0.00 0.00 0.00 0.00 0.00 0.00 0.00 0.00 0.00 0.00 0.00 0.00 0.00 0.00 0.00 0.00 0.00 0.00 0.00 0.00 0.00 0.00 0.00 0.00 0.00 0.00 0.00 0.00 0.00 0.00 0.00 0.00 0.00 0.00 0.00 0.00 0.01 0.00 0.00
0.00 0.00 0.00 0.00 0.00 0.00 0.00 0.00 0.00 0.00 0.00 0.00 0.00 0.00 0.00 0.00 0.00 0.00 0.00 0.00 0.00 0.00 0.00 0.00 0.00 0.00 0.00 0.00 0.00 0.00 0.00 0.00 0.00 0.00 0.00 0.00 0.00 0.00 0.00 0.00 0.00 0.00 0.00 0.00 0.00 0.00 0.00 0.00 0.00
0.00 0.00 0.00 0.00 0.00 0.00 0.00 0.00 0.00 0.00 0.00 0.00 0.00 0.00 0.00 0.00 0.00 0.00 0.00 0.00 0.00 0.00 0.00 0.00 0.00 0.00 0.00 0.00 0.00 0.00 0.00 0.00 0.00 0.00 0.00 0.00 0.00 0.00 0.00 0.00 0.00 0.00 0.00 0.00 0.00 0.00 0.00 0.00 0.00
0.00 0.00 0.00 0.00 0.00 0.00 0.00 0.00 0.00 0.00 0.00 0.00 0.00 0.00 0.00 0.00 0.00 0.00 0.00 0.00 0.00 0.00 0.00 0.00 0.00 0.00 0.00 0.00 0.00 0.00 0.00 0.00 0.00 0.00 0.00 0.00 0.00 0.00 0.00 0.00 0.00 0.00 0.00 0.00 0.00 0.00 0.00 0.00 0.00
0.00 0.00 0.00 0.00 0.00 0.00 0.00 0.00 0.00 0.00 0.00 0.00 0.00 0.00 0.00 0.00 0.00 0.00 0.00 0.00 0.00 0.00 0.00 0.00 0.00 0.00 0.00 0.00 0.00 0.00 0.00 0.00 0.00 0.00 0.00 0.00 0.00 0.00 0.00 0.00 0.00 0.00 0.00 0.00 0.00 0.00 0.00 0.00 0.00
0.00 0.00 0.00 0.00 0.00 0.00 0.00 0.00 0.00 0.00 0.00 0.00 0.00 0.00 0.00 0.00 0.00 0.00 0.00 0.00 0.00 0.00 0.00 0.00 0.00 0.00 0.00 0.00 0.00 0.00 0.00 0.00 0.00 0.00 0.00 0.00 0.00 0.00 0.00 0.00 0.00 0.00 0.00 0.00 0.00 0.00 0.00 0.00 0.00
0.00 0.00 0.00 0.00 0.00 0.00 0.00 0.00 0.00 0.00 0.00 0.00 0.00 0.00 0.00 0.00 0.00 0.00 0.00 0.00 0.00 0.00 0.00 0.00 0.00 0.00 0.00 0.00 0.00 0.00 0.00 0.00 0.00 0.00 0.00 0.00 0.00 0.00 0.00 0.00 0.00 0.00 0.00 0.00 0.00 0.00 0.00 0.00 0.00
0.00 0.00 0.00 0.00 0.00 0.00 0.00 0.00 0.00 0.00 0.00 0.00 0.00 0.00 0.00 0.00 0.00 0.00 0.00 0.00 0.00 0.00 0.00 0.00 0.00 0.00 0.00 0.00 0.00 0.00 0.00 0.00 0.00 0.00 0.00 0.00 0.00 0.00 0.00 0.00 0.00 0.00 0.00 0.00 0.00 0.00 0.00 0.00 0.00
0.00 0.00 0.00 0.00 0.00 0.00 0.00 0.00 0.00 0.00 0.00 0.00 0.00 0.00 0.00 0.00 0.00 0.00 0.00 0.00 0.00 0.00 0.00 0.00 0.00 0.00 0.00 0.00 0.00 0.00 0.00 0.00 0.00 0.00 0.00 0.00 0.00 0.00 0.00 0.00 0.00 0.00 0.00 0.00 0.00 0.00 0.00 0.00 0.00
0.00 0.00 0.00 0.00 0.00 0.00 0.00 0.00 0.00 0.00 0.00 0.00 0.00 0.00 0.00 0.00 0.00 0.00 0.00 0.00 0.00 0.00 0.00 0.00 0.00 0.00 0.00 0.00 0.00 0.00 0.00 0.00 0.00 0.00 0.00 0.00 0.00 0.00 0.00 0.00 0.00 0.00 0.00 0.00 0.00 0.00 0.00 0.00 0.00
0.00 0.00 0.00 0.00 0.00 0.00 0.00 0.00 0.00 0.00 0.00 0.00 0.00 0.00 0.00 0.00 0.00 0.00 0.00 0.00 0.00 0.00 0.00 0.00 0.00 0.00 0.00 0.00 0.00 0.00 0.00 0.00 0.00 0.00 0.00 0.00 0.00 0.00 0.00 0.00 0.00 0.00 0.00 0.00 0.00 0.00 0.00 0.00 0.00
0.00 0.00 0.00 0.00 0.00 0.00 0.00 0.00 0.00 0.00 0.00 0.00 0.00 0.00 0.00 0.00 0.00 0.00 0.00 0.00 0.00 0.00 0.00 0.00 0.00 0.00 0.00 0.00 0.00 0.00 0.00 0.00 0.00 0.00 0.00 0.00 0.00 0.00 0.00 0.00 0.00 0.00 0.00 0.00 0.00 0.00 0.00 0.00 0.00
0.00 0.00 0.00 0.00 0.00 0.00 0.00 0.00 0.00 0.00 0.00 0.00 0.00 0.00 0.00 0.00 0.00 0.00 0.00 0.00 0.00 0.00 0.00 0.00 0.00 0.00 0.00 0.00 0.00 0.00 0.00 0.00 0.00 0.00 0.00 0.00 0.00 0.00 0.00 0.00 0.00 0.00 0.00 0.00 0.00 0.00 0.00 0.00 0.02
0.00 0.00 0.00 0.00 0.00 0.00 0.00 0.00 0.00 0.00 0.00 0.00 0.00 0.00 0.00 0.00 0.00 0.00 0.00 0.00 0.00 0.00 0.00 0.00 0.00 0.00 0.00 0.00 0.00 0.00 0.00 0.00 0.00 0.00 0.00 0.00 0.02 0.02 0.00 0.00 0.00 0.00 0.00 0.00 0.00 0.01 0.02 0.02 0.02
0.00 0.00 0.00 0.00 0.00 0.00 0.00 0.00 0.00 0.00 0.00 0.00 0.00 0.00 0.00 0.00 0.00 0.00 0.00 0.00 0.00 0.00 0.00 0.00 0.00 0.00 0.00 0.00 0.00 0.00 0.00 0.00 0.00 0.00 0.02 0.02 0.03 0.05 0.01 0.00 0.00 0.00 0.00 0.02 0.03 0.05 0.07 0.03 0.05
0.00 0.00 0.00 0.00 0.00 0.00 0.00 0.00 0.00 0.00 0.00 0.00 0.00 0.00 0.00 0.00 0.00 0.00 0.00 0.00 0.00 0.00 0.00 0.00 0.00 0.00 0.00 0.00 0.00 0.00 0.00 0.00 0.00 0.00 0.02 0.07 0.04 0.03 0.01 0.00 0.00 0.00 0.01 0.08 0.13 0.11 0.11 0.06 0.04
0.00 0.00 0.00 0.00 0.00 0.00 0.00 0.00 0.00 0.00 0.00 0.00 0.00 0.00 0.00 0.00 0.00 0.00 0.00 0.00 0.00 0.00 0.00 0.00 0.00 0.00 0.00 0.00 0.00 0.00 0.00 0.00 0.00 0.00 0.00 0.01 0.00 0.01 0.00 0.00 0.00 0.02 0.08 0.18 0.16 0.13 0.11 0.02 0.00
0.00 0.00 0.00 0.00 0.00 0.00 0.00 0.00 0.00 0.00 0.00 0.00 0.00 0.00 0.00 0.00 0.00 0.00 0.00 0.00 0.00 0.00 0.00 0.00 0.00 0.00 0.00 0.00 0.00 0.00 0.00 0.00 0.00 0.00 0.00 0.00 0.00 0.00 0.00 0.00 0.01 0.05 0.04 0.08 0.03 0.01 0.01 0.00 0.00
0.00 0.00 0.00 0.00 0.00 0.00 0.00 0.00 0.00 0.00 0.00 0.00 0.00 0.00 0.00 0.00 0.00 0.00 0.00 0.00 0.00 0.00 0.00 0.00 0.00 0.00 0.00 0.00 0.00 0.00 0.00 0.00 0.00 0.00 0.00 0.00 0.00 0.00 0.00 0.01 0.01 0.00 0.00 0.00 0.00 0.00 0.00 0.00 0.00
0.00 0.00 0.00 0.00 0.00 0.00 0.00 0.00 0.00 0.00 0.00 0.00 0.00 0.00 0.00 0.00 0.00 0.00 0.00 0.00 0.00 0.00 0.00 0.00 0.00 0.00 0.00 0.00 0.00 0.00 0.00 0.00 0.00 0.00 0.00 0.00 0.00 0.00 0.01 0.03 0.00 0.00 0.00 0.00 0.00 0.00 0.00 0.00 0.00
0.00 0.00 0.00 0.00 0.00 0.00 0.00 0.00 0.00 0.00 0.00 0.00 0.00 0.00 0.00 0.00 0.00 0.00 0.00 0.00 0.00 0.00 0.00 0.00 0.00 0.00 0.00 0.00 0.00 0.00 0.00 0.00 0.00 0.00 0.00 0.00 0.00 0.00 0.01 0.01 0.00 0.00 0.00 0.00 0.00 0.00 0.00 0.00 0.00
0.00 0.00 0.00 0.00 0.00 0.00 0.00 0.00 0.00 0.00 0.00 0.00 0.00 0.00 0.00 0.00 0.00 0.00 0.00 0.00 0.00 0.00 0.00 0.00 0.00 0.00 0.00 0.00 0.00 0.00 0.00 0.00 0.00 0.00 0.00 0.00 0.00 0.00 0.00 0.00 0.00 0.00 0.00 0.00 0.00 0.00 0.00 0.00 0.00
0.00 0.00 0.00 0.00 0.00 0.00 0.00 0.00 0.00 0.00 0.00 0.00 0.00 0.00 0.00 0.00 0.00 0.00 0.00 0.00 0.00 0.00 0.00 0.00 0.00 0.00 0.00 0.00 0.00 0.00 0.00 0.00 0.00 0.00 0.00 0.00 0.00 0.00 0.00 0.00 0.00 0.00 0.00 0.00 0.00 0.00 0.00 0.00 0.00
0.00 0.00 0.00 0.00 0.00 0.00 0.00 0.00 0.00 0.00 0.00 0.00 0.00 0.00 0.00 0.00 0.00 0.00 0.00 0.00 0.00 0.00 0.00 0.00 0.00 0.00 0.00 0.00 0.00 0.00 0.00 0.00 0.00 0.00 0.00 0.00 0.00 0.00 0.00 0.00 0.00 0.00 0.00 0.00 0.00 0.00 0.01 0.05 0.02
0.00 0.00 0.00 0.00 0.00 0.00 0.00 0.00 0.00 0.00 0.00 0.00 0.00 0.00 0.00 0.00 0.00 0.00 0.00 0.00 0.00 0.00 0.00 0.00 0.00 0.00 0.00 0.00 0.00 0.00 0.00 0.00 0.00 0.00 0.00 0.00 0.00 0.00 0.00 0.00 0.00 0.00 0.00 0.00 0.00 0.02 0.07 0.04 0.00
0.00 0.00 0.00 0.00 0.00 0.00 0.00 0.00 0.00 0.00 0.00 0.00 0.00 0.00 0.00 0.00 0.00 0.00 0.00 0.00 0.00 0.00 0.00 0.00 0.00 0.00 0.00 0.00 0.00 0.00 0.00 0.00 0.00 0.00 0.00 0.00 0.00 0.00 0.00 0.00 0.00 0.00 0.00 0.01 0.00 0.01 0.00 0.00 0.00
0.00 0.00 0.00 0.00 0.00 0.00 0.00 0.00 0.00 0.00 0.00 0.00 0.00 0.00 0.00 0.00 0.00 0.00 0.00 0.00 0.00 0.00 0.00 0.00 0.00 0.00 0.00 0.00 0.00 0.00 0.00 0.00 0.00 0.00 0.00 0.00 0.00 0.00 0.00 0.00 0.00 0.00 0.00 0.00 0.00 0.01 0.02 0.03 0.00
MSLP
1011.56 1011.75 1011.86 1012.06 1012.91 1012.67 1011.24 1009.43 1007.30 1005.71 1004.86 1003.83 1003.08 1002.64 1003.24 1004.09 1004.90 1006.05 1005.03 1005.67 1006.19 1007.14 1007.94 1008.61 1009.02 1009.37 1009.64 1010.05 1010.25 1010.50 1010.91 1011.37 1011.68 1011.88 1012.18 1012.50 1012.70 1012.88 1013.06 1013.34 1013.56 1013.65 1013.79 1013.80 1013.85 1013.90 1014.06 1014.03 1013.95
1011.29 1011.57 1011.79 1012.12 1012.50 1012.13 1010.48 1008.48 1006.98 1005.35 1004.64 1003.66 1002.49 1002.95 1002.82 1004.30 1004.08 1004.97 1005.67 1005.86 1006.05 1006.89 1007.73 1008.33 1008.82 1009.23 1009.59 1009.91 1010.13 1010.47 1010.83 1011.21 1011.53 1011.71 1012.01 1012.21 1012.52 1012.69 1012.79 1013.08 1013.31 1013.50 1013.59 1013.64 1013.69 1013.80 1013.93 1013.87 1013.87
1011.11 1011.17 1012.10 1011.97 1011.80 1010.85 1009.43 1007.50 1005.90 1004.53 1003.64 1003.57 1003.49 1002.87 1003.33 1003.91 1004.35 1004.33 1004.63 1005.64 1006.35 1007.22 1007.76 1008.15 1008.58 1009.02 1009.34 1009.71 1010.01 1010.30 1010.64 1010.97 1011.25 1011.38 1011.65 1011.84 1012.10 1012.29 1012.51 1012.85 1013.07 1013.26 1013.30 1013.36 1013.48 1013.60 1013.69 1013.66 1013.66
1011.22 1011.68 1012.17 1011.69 1010.82 1009.41 1007.64 1006.46 1005.97 1005.03 1003.69 1003.33 1003.69 1003.49 1003.63 1003.52 1003.97 1003.98 1004.98 1005.81 1006.49 1007.25 1007.52 1007.63 1007.89 1008.48 1008.88 1009.22 1009.53 1009.87 1010.24 1010.59 1010.84 1010.96 1011.20 1011.43 1011.68 1011.96 1012.13 1012.58 1012.82 1013.05 1013.16 1013.12 1013.16 1013.29 1013.35 1013.44 1013.45
1011.28 1011.92 1012.23 1011.56 1009.88 1008.24 1006.84 1006.31 1005.18 1004.27 1003.96 1003.48 1003.55 1003.75 1004.41 1003.79 1003.56 1004.16 1004.90 1005.60 1006.10 1006.83 1007.02 1007.12 1007.32 1007.67 1008.18 1008.59 1008.83 1009.04 1009.50 1009.96 1010.25 1010.58 1010.92 1011.10 1011.37 1011.73 1011.93 1012.20 1012.44 1012.69 1012.79 1012.98 1013.04 1013.06 1013.13 1013.20 1013.31
1011.82 1012.14 1012.33 1011.37 1009.51 1007.41 1006.67 1005.79 1004.51 1003.80 1003.82 1003.59 1003.75 1003.89 1004.09 1003.90 1003.99 1004.14 1004.58 1005.10 1005.18 1005.73 1006.44 1006.78 1007.11 1007.46 1007.75 1007.98 1008.17 1008.43 1008.77 1009.25 1009.77 1010.24 1010.54 1010.83 1011.17 1011.54 1011.79 1011.99 1012.17 1012.43 1012.65 1012.64 1012.79 1012.88 1012.97 1013.06 1013.14
1011.76 1012.23 1012.01 1010.94 1009.36 1007.45 1006.02 1005.01 1004.38 1003.66 1003.05 1003.06 1002.64 1003.82 1003.59 1003.78 1003.62 1003.74 1004.20 1004.62 1004.98 1005.44 1006.01 1006.48 1006.96 1007.32 1007.37 1007.59 1007.98 1008.29 1008.61 1009.00 1009.43 1009.85 1010.30 1010.56 1010.95 1011.24 1011.56 1011.81 1012.13 1012.30 1012.41 1012.52 1012.57 1012.68 1012.76 1012.91 1012.99
1011.17 1011.82 1011.55 1010.60 1009.06 1007.23 1006.29 1004.47 1004.19 1003.60 1003.17 1002.77 1002.81 1003.53 1003.68 1003.35 1002.98 1003.79 1003.99 1004.33 1004.99 1005.24 1005.61 1006.07 1006.55 1007.02 1007.21 1007.24 1007.54 1007.93 1008.21 1008.88 1009.34 1009.74 1009.80 1010.29 1010.68 1010.90 1011.25 1011.58 1011.86 1012.09 1012.19 1012.27 1012.31 1012.44 1012.58 1012.76 1012.85
1010.28 1011.42 1010.92 1009.94 1008.82 1006.92 1006.20 1005.89 1003.42 1004.02 1003.24 1002.50 1002.30 1002.79 1002.79 1003.01 1003.62 1003.91 1004.23 1004.96 1005.24 1005.44 1005.47 1005.95 1006.33 1006.68 1006.87 1006.89 1007.02 1007.58 1007.89 1008.34 1008.93 1009.54 1009.65 1009.91 1010.40 1010.63 1010.98 1011.20 1011.62 1011.90 1011.93 1012.06 1012.07 1012.21 1012.42 1012.57 1012.60
1009.89 1010.16 1009.59 1008.29 1007.87 1006.68 1005.55 1005.80 1004.69 1004.43 1003.45 1002.82 1002.31 1002.45 1002.47 1002.76 1003.21 1003.80 1004.23 1004.09 1004.69 1004.65 1004.75 1005.33 1005.67 1006.12 1006.37 1006.55 1006.83 1007.32 1007.73 1008.05 1008.56 1009.06 1009.48 1009.61 1009.99 1010.40 1010.61 1010.95 1011.20 1011.39 1011.60 1011.76 1011.84 1012.02 1012.25 1012.37 1012.43
1008.74 1008.20 1008.33 1007.40 1007.27 1006.79 1005.73 1005.19 1004.86 1004.36 1003.67 1003.25 1002.99 1002.52 1002.42 1002.23 1002.94 1003.15 1003.39 1003.42 1003.11 1003.40 1003.95 1004.43 1004.84 1005.21 1005.85 1006.24 1006.44 1006.90 1007.26 1007.64 1007.97 1008.45 1008.88 1009.23 1009.62 1010.11 1010.42 1010.64 1010.89 1010.97 1011.02 1011.49 1011.62 1011.90 1012.06 1012.17 1012.23
1008.69 1007.52 1007.42 1007.24 1006.62 1006.26 1005.60 1004.80 1004.29 1004.46 1003.76 1003.39 1002.89 1002.62 1002.36 1002.13 1002.31 1002.79 1003.19 1002.81 1002.60 1002.30 1002.90 1003.20 1003.70 1004.40 1004.93 1005.77 1005.95 1006.48 1006.83 1007.11 1007.52 1007.76 1008.32 1008.90 1009.44 1009.89 1010.24 1010.33 1010.47 1010.61 1010.79 1011.08 1011.47 1011.81 1011.97 1012.12 1012.03
1007.97 1007.49 1007.20 1006.91 1006.37 1005.83 1005.48 1004.66 1003.95 1003.37 1003.05 1002.63 1002.52 1002.25 1002.21 1002.12 1002.23 1002.14 1002.22 1002.10 1001.70 1001.85 1001.70 1002.18 1002.83 1003.43 1004.21 1004.86 1005.33 1005.76 1005.89 1006.26 1006.76 1007.38 1007.83 1008.28 1008.97 1009.32 1009.69 1009.83 1009.98 1010.25 1010.58 1010.88 1011.39 1011.64 1011.86 1011.90 1011.74
1007.65 1007.69 1006.93 1006.54 1005.91 1005.42 1005.23 1004.04 1003.55 1002.62 1002.17 1002.06 1002.02 1001.75 1001.47 1001.68 1001.74 1001.57 1001.61 1001.63 1001.75 1001.23 1001.01 1001.55 1002.00 1002.31 1003.25 1003.70 1004.13 1004.53 1005.12 1005.47 1006.00 1006.64 1007.14 1007.61 1008.25 1008.81 1009.13 1009.30 1009.56 1010.02 1010.19 1010.40 1010.71 1011.06 1011.32 1011.46 1011.49
1007.86 1007.66 1006.85 1005.63 1005.49 1005.10 1005.14 1003.15 1002.15 1002.25 1002.15 1001.91 1001.76 1001.40 1001.14 1001.08 1001.10 1001.29 1001.05 1000.94 1000.72 1000.46 1000.22 1000.77 1000.92 1001.48 1002.35 1002.56 1002.96 1003.70 1004.19 1004.74 1005.40 1005.94 1006.52 1007.02 1007.68 1008.10 1008.30 1008.75 1009.17 1009.50 1009.75 1010.02 1010.49 1010.86 1011.06 1011.26 1011.42
1007.88 1007.59 1006.63 1004.70 1005.31 1005.03 1005.48 1000.21 1001.64 1001.94 1001.89 1001.60 1001.32 1000.97 1000.75 1000.48 1000.36 1000.12 1000.17 1000.18 999.80 999.95 1000.14 999.98 1000.31 1000.89 1001.41 1001.91 1002.47 1003.06 1003.52 1004.10 1004.82 1005.46 1005.95 1006.52 1007.03 1007.39 1007.93 1008.40 1008.78 1008.98 1009.45 1010.04 1010.53 1010.76 1011.03 1011.14 1011.18
1007.96 1006.76 1005.65 1004.54 1005.01 1004.99 1004.69 998.90 1002.07 1001.87 1001.70 1001.25 1001.04 1000.63 1000.25 999.82 999.72 999.53 999.27 999.12 998.97 999.04 999.13 999.74 1000.04 1000.35 1000.77 1001.38 1002.03 1002.40 1002.89 1003.59 1004.27 1005.04 1005.63 1006.08 1006.59 1007.15 1007.76 1008.12 1008.59 1008.69 1009.29 1009.77 1010.11 1010.38 1010.63 1010.90 1010.95
1007.12 1006.21 1005.04 1005.01 1004.90 1004.66 1004.16 1000.67 1001.83 1001.69 1001.39 1000.96 1000.45 999.96 999.78 999.44 999.12 998.69 998.41 998.19 998.17 998.42 998.78 999.33 999.61 1000.04 1000.66 1001.28 1002.03 1002.44 1003.03 1003.61 1004.10 1004.74 1005.34 1005.83 1006.27 1006.85 1007.66 1007.94 1008.30 1008.61 1009.19 1009.64 1009.91 1010.13 1010.34 1010.40 1010.58
1007.01 1006.61 1005.63 1004.94 1004.51 1004.23 1003.30 1001.78 1001.23 1000.93 1000.52 1000.32 999.64 999.35 998.92 998.71 998.04 997.69 997.64 997.77 998.22 998.28 998.72 998.83 999.30 999.99 1000.45 1001.38 1001.93 1002.58 1003.13 1003.76 1004.20 1004.56 1005.09 1005.78 1006.30 1006.82 1007.46 1007.64 1007.99 1008.44 1008.91 1009.19 1009.51 1009.74 1009.95 1010.08 1010.44
1007.38 1006.82 1005.53 1005.59 1004.89 1004.11 1003.69 1002.19 1000.80 1000.38 999.84 999.90 999.14 998.89 998.63 998.42 997.80 997.54 997.56 997.66 997.86 997.96 998.38 998.78 999.09 999.41 1000.03 1000.68 1001.54 1002.23 1003.09 1003.86 1004.14 1004.69 1005.13 1005.51 1006.13 1006.65 1007.04 1007.31 1007.76 1008.19 1008.74 1009.05 1009.30 1009.54 1009.81 1010.04 1010.24
1006.48 1006.56 1006.27 1006.07 1005.42 1004.03 1004.10 1002.11 1001.16 999.73 999.23 998.87 998.65 998.13 997.95 997.71 997.53 997.41 997.40 997.51 997.59 998.02 998.39 998.75 999.06 999.54 999.84 1000.61 1001.58 1002.50 1003.26 1003.99 1004.53 1004.91 1005.31 1005.60 1005.82 1006.33 1006.67 1007.06 1007.50 1008.02 1008.36 1008.72 1008.95 1009.14 1009.47 1009.89 1010.11
1006.00 1006.53 1006.25 1006.28 1006.11 1004.61 1004.44 1001.78 1001.32 999.21 998.23 998.24 998.09 997.79 997.64 996.95 997.02 996.98 997.18 997.62 997.58 997.94 998.44 998.84 999.33 1000.06 1000.15 1000.52 1001.61 1002.47 1003.47 1004.24 1004.43 1004.71 1005.03 1005.50 1005.85 1006.27 1006.62 1006.92 1007.30 1007.68 1008.05 1008.39 1008.59 1008.81 1009.13 1009.54 1009.94
1005.58 1006.17 1006.01 1006.01 1005.63 1005.30 1004.40 1004.37 996.51 999.02 997.84 997.61 997.12 996.97 996.16 996.11 996.47 996.63 996.60 997.02 997.73 998.18 998.54 999.05 999.65 1000.29 1000.75 1000.95 1001.73 1002.65 1003.55 1003.98 1004.30 1004.77 1005.27 1005.66 1006.07 1006.32 1006.49 1006.81 1007.21 1007.52 1007.91 1008.11 1008.34 1008.58 1008.90 1009.11 1009.41
1005.87 1005.81 1006.00 1006.02 1006.06 1005.30 1003.87 1003.77 995.36 997.73 997.00 996.79 996.43 995.95 995.85 995.63 995.89 996.21 996.56 997.27 998.07 998.39 998.80 999.34 1000.03 1000.89 1001.06 1001.49 1002.21 1002.84 1003.42 1004.15 1004.72 1005.13 1005.56 1006.01 1006.24 1006.36 1006.55 1006.87 1007.07 1007.41 1007.65 1007.85 1008.05 1008.22 1008.47 1008.67 1008.94
1005.92 1006.50 1006.54 1006.55 1005.93 1003.41 1003.18 1002.61 996.99 996.18 995.52 995.84 995.77 995.58 995.34 995.39 995.96 996.56 996.89 997.47 998.03 998.51 999.15 999.89 1000.41 1001.30 1001.38 1001.97 1002.55 1003.01 1003.47 1004.06 1004.64 1005.16 1005.57 1006.01 1006.33 1006.47 1006.58 1006.75 1007.08 1007.28 1007.40 1007.61 1007.72 1007.87 1008.13 1008.33 1008.63
1005.53 1006.15 1006.27 1006.08 1005.19 1004.06 1003.11 999.86 997.41 995.84 995.29 994.96 995.16 994.78 994.96 995.25 995.48 996.22 996.82 997.35 998.13 998.85 999.53 1000.05 1000.78 1001.39 1001.74 1002.27 1002.77 1003.15 1003.65 1004.24 1004.78 1005.16 1005.55 1005.88 1006.13 1006.18 1006.33 1006.61 1006.86 1007.04 1007.22 1007.34 1007.43 1007.69 1007.88 1007.96 1008.21
1005.20 1005.47 1005.78 1006.17 1004.88 1004.62 1001.73 998.92 996.92 995.49 994.33 994.48 994.36 994.48 994.99 995.51 995.91 996.54 997.27 997.89 998.34 999.18 999.85 1000.25 1000.94 1001.57 1001.98 1002.42 1002.94 1003.44 1003.87 1004.32 1004.81 1005.10 1005.30 1005.61 1005.78 1006.08 1006.35 1006.60 1006.78 1006.91 1006.96 1007.06 1007.28 1007.48 1007.64 1007.72 1007.94
1005.12 1005.52 1005.81 1005.86 1005.48 1004.04 1001.15 998.87 996.41 994.84 993.91 993.99 994.00 994.33 995.07 995.91 996.19 996.85 997.65 998.22 998.82 999.43 1000.00 1000.50 1001.15 1001.73 1002.07 1002.53 1003.01 1003.54 1003.93 1004.26 1004.63 1004.90 1005.32 1005.55 1005.78 1006.06 1006.34 1006.51 1006.65 1006.73 1006.78 1006.90 1007.02 1007.24 1007.44 1007.68 1007.68
1005.42 1005.39 1005.60 1005.48 1004.99 1003.34 1001.36 997.54 995.78 994.15 994.00 993.87 993.82 993.68 994.39 995.48 996.04 996.95 997.64 998.36 999.06 999.63 1000.19 1000.84 1001.36 1001.79 1002.30 1002.70 1003.19 1003.65 1004.05 1004.33 1004.60 1004.94 1005.25 1005.57 1005.77 1006.09 1006.24 1006.41 1006.45 1006.64 1006.70 1006.79 1006.93 1007.09 1007.35 1007.53 1007.59
1005.52 1005.71 1005.97 1005.74 1004.62 1002.99 1001.01 995.84 995.05 993.71 993.35 993.29 992.60 992.96 994.10 994.81 995.91 996.71 997.51 998.37 999.22 999.84 1000.48 1001.05 1001.48 1001.92 1002.37 1002.82 1003.32 1003.73 1004.04 1004.36 1004.82 1005.10 1005.28 1005.50 1005.83 1006.06 1006.15 1006.29 1006.47 1006.66 1006.72 1006.79 1006.89 1007.07 1007.18 1007.31 1007.46
Thickness
5791 5792 5793 5786 5756 5748 5747 5765 5800 5804 5810 5836 5842 5837 5829 5831 5813 5786 5849 5847 5842 5834 5824 5815 5809 5804 5800 5795 5790 5784 5777 5769 5764 5760 5756 5751 5748 5744 5741 5736 5731 5727 5723 5721 5719 5717 5713 5713 5714
5790 5790 5786 5773 5744 5734 5740 5782 5790 5810 5820 5831 5841 5832 5827 5812 5842 5837 5834 5842 5842 5833 5822 5813 5808 5802 5797 5792 5788 5782 5774 5766 5760 5757 5753 5750 5746 5742 5739 5734 5729 5724 5720 5717 5714 5711 5708 5708 5708
5789 5790 5764 5756 5743 5740 5747 5789 5803 5819 5830 5829 5821 5833 5819 5818 5836 5842 5847 5843 5838 5827 5819 5813 5808 5802 5796 5790 5784 5779 5772 5765 5759 5756 5751 5748 5744 5741 5737 5731 5726 5720 5717 5713 5709 5706 5704 5703 5703
5778 5771 5762 5747 5747 5767 5784 5798 5801 5807 5824 5829 5823 5811 5823 5839 5838 5849 5842 5835 5830 5822 5817 5815 5811 5803 5798 5791 5785 5779 5772 5765 5760 5756 5751 5747 5742 5737 5733 5726 5722 5716 5713 5711 5707 5704 5701 5699 5698
5771 5756 5735 5738 5756 5779 5796 5799 5802 5804 5805 5814 5812 5801 5799 5827 5842 5839 5835 5830 5826 5820 5818 5816 5813 5809 5802 5793 5787 5782 5774 5767 5762 5756 5750 5746 5741 5734 5728 5723 5718 5714 5711 5708 5704 5701 5699 5696 5694
5745 5743 5722 5729 5754 5784 5793 5799 5804 5808 5805 5804 5804 5802 5804 5831 5830 5832 5831 5829 5833 5828 5822 5818 5814 5808 5802 5794 5790 5784 5777 5770 5762 5755 5749 5744 5737 5730 5725 5719 5714 5710 5706 5704 5701 5698 5695 5692 5691
5733 5721 5718 5736 5752 5769 5789 5801 5796 5801 5806 5799 5817 5786 5806 5820 5829 5833 5827 5829 5826 5822 5821 5818 5809 5801 5802 5795 5787 5781 5775 5767 5761 5753 5746 5741 5735 5729 5723 5717 5711 5706 5703 5700 5697 5694 5691 5688 5687
5736 5721 5720 5730 5743 5757 5776 5793 5802 5799 5797 5822 5819 5785 5787 5814 5832 5825 5822 5822 5822 5819 5819 5814 5808 5798 5792 5796 5788 5780 5775 5765 5757 5750 5746 5739 5733 5728 5722 5716 5709 5703 5699 5696 5694 5690 5687 5684 5682
5745 5699 5704 5724 5740 5763 5770 5765 5807 5806 5803 5815 5817 5810 5815 5826 5823 5818 5812 5803 5803 5803 5809 5801 5799 5795 5788 5793 5790 5781 5774 5765 5756 5747 5743 5738 5732 5726 5720 5715 5707 5701 5697 5693 5691 5686 5682 5679 5678
5721 5705 5716 5751 5757 5759 5773 5763 5782 5781 5790 5797 5810 5815 5823 5819 5813 5804 5800 5803 5799 5798 5805 5798 5793 5790 5788 5787 5783 5775 5770 5764 5755 5747 5740 5736 5731 5723 5718 5712 5705 5701 5696 5691 5688 5683 5678 5675 5673
5725 5717 5737 5753 5756 5760 5764 5763 5776 5774 5772 5789 5788 5805 5815 5820 5810 5806 5804 5806 5810 5811 5810 5801 5797 5795 5788 5783 5782 5775 5769 5762 5754 5747 5740 5735 5728 5721 5715 5710 5704 5701 5695 5688 5685 5680 5676 5672 5669
5708 5733 5736 5745 5756 5754 5754 5772 5762 5765 5777 5792 5798 5806 5811 5812 5815 5811 5804 5808 5814 5818 5813 5809 5806 5798 5790 5781 5779 5772 5767 5761 5753 5746 5739 5732 5725 5718 5712 5708 5703 5699 5693 5687 5681 5676 5672 5667 5664
5708 5724 5728 5734 5743 5749 5754 5750 5761 5767 5784 5800 5799 5802 5801 5805 5807 5809 5810 5812 5815 5812 5814 5810 5803 5802 5791 5782 5776 5770 5768 5762 5753 5743 5737 5730 5723 5716 5711 5706 5701 5695 5688 5682 5676 5671 5667 5663 5662
5710 5706 5719 5726 5732 5740 5736 5749 5758 5772 5791 5791 5791 5793 5801 5800 5803 5805 5806 5807 5808 5810 5810 5805 5801 5803 5793 5785 5778 5772 5766 5761 5752 5743 5737 5730 5722 5714 5709 5704 5699 5691 5685 5679 5672 5668 5664 5661 5658
5695 5683 5702 5720 5724 5726 5737 5733 5747 5778 5783 5778 5783 5788 5793 5797 5801 5801 5805 5805 5807 5808 5810 5802 5802 5801 5790 5786 5782 5772 5767 5761 5752 5745 5736 5729 5720 5715 5711 5702 5694 5687 5681 5675 5667 5662 5658 5655 5651
5677 5676 5673 5719 5718 5724 5719 5729 5761 5773 5767 5764 5774 5783 5788 5795 5799 5805 5804 5803 5806 5804 5800 5803 5799 5794 5790 5784 5778 5771 5767 5760 5752 5743 5735 5727 5721 5715 5707 5697 5691 5685 5676 5668 5659 5653 5647 5645 5643
5654 5662 5675 5701 5716 5709 5708 5740 5745 5759 5760 5757 5762 5769 5779 5789 5794 5797 5804 5805 5806 5804 5802 5797 5794 5789 5786 5780 5774 5770 5766 5758 5749 5740 5733 5725 5718 5710 5702 5694 5686 5678 5670 5661 5654 5648 5643 5639 5637
5652 5666 5682 5677 5697 5701 5699 5721 5734 5746 5749 5749 5760 5770 5775 5783 5789 5798 5802 5806 5806 5801 5800 5795 5791 5786 5781 5774 5766 5762 5755 5748 5743 5736 5728 5721 5713 5706 5694 5686 5678 5672 5662 5654 5648 5642 5636 5634 5631
5653 5652 5664 5681 5691 5692 5696 5708 5723 5738 5741 5739 5756 5765 5775 5781 5792 5801 5803 5801 5795 5795 5792 5788 5783 5778 5775 5765 5757 5751 5744 5738 5733 5730 5723 5714 5703 5693 5685 5680 5673 5666 5657 5649 5643 5638 5633 5629 5624
5634 5636 5653 5664 5678 5683 5686 5692 5720 5733 5740 5740 5758 5764 5769 5769 5782 5788 5790 5790 5789 5791 5786 5782 5778 5776 5771 5764 5755 5748 5739 5730 5726 5719 5713 5707 5698 5691 5683 5676 5669 5661 5653 5644 5638 5633 5626 5623 5619
5632 5628 5641 5641 5658 5680 5666 5677 5694 5729 5739 5749 5753 5763 5766 5769 5778 5781 5784 5783 5783 5780 5778 5774 5769 5766 5763 5757 5748 5740 5732 5724 5717 5711 5704 5700 5696 5688 5680 5672 5665 5656 5648 5641 5636 5630 5623 5616 5613
5614 5632 5639 5635 5635 5636 5668 5650 5681 5726 5737 5743 5750 5754 5757 5773 5775 5778 5780 5775 5776 5774 5772 5766 5760 5753 5753 5752 5742 5734 5724 5714 5712 5708 5702 5694 5690 5682 5676 5669 5661 5653 5646 5638 5633 5628 5622 5615 5610
5619 5624 5628 5633 5633 5628 5646 5624 5726 5714 5723 5737 5753 5751 5770 5779 5775 5774 5778 5777 5770 5767 5763 5757 5751 5745 5743 5743 5737 5728 5718 5713 5708 5701 5694 5688 5683 5678 5672 5665 5658 5650 5643 5638 5633 5628 5622 5617 5613
5614 5611 5616 5623 5614 5604 5650 5637 5721 5710 5727 5737 5748 5754 5764 5773 5774 5774 5772 5767 5760 5758 5754 5749 5742 5736 5737 5735 5728 5720 5713 5705 5698 5693 5687 5680 5675 5671 5667 5659 5653 5648 5644 5638 5634 5630 5624 5621 5617
5591 5582 5571 5577 5582 5625 5656 5643 5707 5725 5742 5740 5744 5753 5766 5770 5767 5762 5762 5758 5753 5749 5744 5739 5736 5728 5731 5726 5719 5714 5708 5701 5694 5687 5680 5674 5669 5665 5661 5657 5652 5647 5644 5640 5636 5631 5626 5622 5619
5572 5571 5567 5574 5583 5619 5647 5653 5690 5732 5748 5749 5753 5760 5766 5767 5764 5760 5756 5753 5746 5741 5737 5734 5729 5726 5723 5718 5712 5708 5701 5694 5689 5683 5676 5671 5667 5664 5660 5656 5652 5648 5646 5642 5638 5633 5628 5625 5622
5568 5565 5588 5576 5606 5598 5637 5677 5707 5733 5748 5747 5752 5757 5758 5755 5755 5752 5747 5743 5740 5735 5730 5729 5726 5721 5717 5712 5706 5700 5695 5690 5683 5678 5674 5669 5666 5660 5657 5654 5651 5649 5647 5643 5638 5633 5629 5627 5624
5565 5575 5566 5564 5572 5586 5629 5652 5677 5719 5737 5738 5744 5750 5749 5748 5749 5746 5742 5738 5734 5731 5728 5725 5720 5715 5712 5707 5702 5695 5690 5686 5681 5675 5670 5666 5662 5658 5654 5653 5652 5650 5648 5644 5640 5634 5631 5628 5626
5551 5558 5567 5568 5574 5596 5609 5653 5695 5728 5728 5733 5743 5752 5753 5749 5747 5743 5740 5735 5730 5728 5724 5718 5714 5711 5706 5702 5696 5691 5686 5682 5676 5672 5667 5662 5659 5655 5654 5653 5653 5650 5648 5645 5641 5635 5632 5629 5627
5547 5549 5551 5547 5572 5596 5622 5667 5713 5728 5736 5739 5751 5757 5754 5752 5745 5742 5738 5731 5725 5722 5717 5713 5710 5706 5702 5697 5692 5687 5683 5677 5671 5668 5663 5660 5655 5653 5653 5653 5652 5649 5647 5644 5640 5637 5634 5631 5627